Find Starlink 2362

NORAD ID: 47902 Int'l Des: 2021-021 Owner: SPXS Country: US Constellation: starlink decayed
LEOCIRCULAR

Re-entered — Jan 20, 2025

Loading 3D Globe...

About Starlink 2362

Starlink 2362 (NORAD 47902) is a starlink constellation satellite (v1.0) launched Mar 14, 2021 by SPXS of US. It re-entered the atmosphere on Jan 20, 2025. with a mass of 260.00 kg.

Altitude History

Loading altitude history...

Two-Line Element Set

1 47902U 21021AU 25020.11108006 .09040649 12236-4 84754-3 0 9995
2 47902 53.0337 307.1597 0004563 208.4417 176.3888 16.37867760213661
Epoch: Jan 20, 2025 • Age: 14662 hours

Current Status

Position data unavailable
Launch Date Mar 14, 2021
Age 5.5 years
Decay Date Jan 20, 2025
Type internet

Technical Details

Classification Payload
Mass 260.00 kg
Dry Mass 248.00 kg
Length 0.20 m
Span 9.00 m
Shape ? Box + pan
Manufacturer SPXS
Bus Type Starlink
Phase Status Unknown Transfer Status
Owner/State SPXS/US

Most Searched